GFSGL_sfc_thetae_183.txt.gz
Theta_e
298 298 298 299 299 300 300 300 300 301 301 301 301 301 302 302 303 304 305 306 308 310 312 314 313 314 315 316 318 317 315 314 308 311 315 317 316 313 313 314 314 316 315
297 297 298 298 298 298 298 298 298 298 299 299 299 299 299 300 300 300 300 301 301 301 302 302 303 304 305 307 309 310 310 312 311 308 311 312 313 316 316 313 314 314 316
296 296 296 295 295 295 295 295 296 296 296 296 296 296 296 297 297 298 299 299 299 299 300 300 300 301 301 302 303 303 304 305 306 306 306 310 311 313 312 313 313 312 313
295 295 294 293 294 294 293 293 293 293 293 294 294 294 295 295 295 296 296 297 298 298 299 299 299 299 299 299 299 299 299 299 301 302 303 304 308 309 310 310 307 308 308
294 293 292 292 293 292 291 291 291 291 291 292 292 293 294 295 295 296 296 296 296 297 298 297 298 296 291 294 297 297 298 297 296 295 295 297 299 301 301 308 306 310 307
292 291 290 290 289 289 289 288 288 288 289 290 291 291 292 293 294 294 294 294 294 294 294 294 296 292 294 293 294 294 295 295 294 294 295 294 296 298 300 302 305 303 301
291 289 288 288 287 287 286 286 285 286 288 288 290 291 291 293 293 293 292 292 292 292 292 293 293 294 292 295 295 294 294 294 295 296 294 296 296 299 299 299 300 302 304
288 287 286 286 286 285 285 285 284 285 286 287 288 290 290 291 292 292 291 291 291 292 293 293 293 293 294 293 293 291 291 292 293 294 295 296 299 301 301 301 301 301 303
286 285 285 285 284 284 283 283 284 284 285 286 287 288 289 290 291 291 291 290 290 290 291 292 293 292 292 292 291 289 289 289 292 293 294 295 295 296 297 299 297 296 296
286 285 285 284 283 283 283 282 283 283 284 284 285 287 287 288 290 291 291 290 289 289 289 289 288 289 290 291 290 289 287 288 289 289 290 291 293 295 295 297 298 296 297
284 283 283 282 282 282 281 282 282 282 283 283 284 285 286 287 289 291 292 290 288 288 288 288 289 290 291 291 292 289 288 289 289 288 288 288 290 292 295 299 301 300 298
282 281 280 280 280 281 279 280 280 281 280 281 283 284 286 287 287 290 291 291 291 288 287 288 288 290 290 291 290 290 290 289 286 285 286 287 289 290 293 298 301 301 303
277 276 275 277 278 279 277 278 278 279 279 280 282 283 284 285 287 289 290 290 290 288 288 288 289 289 290 289 288 288 285 285 284 284 284 285 289 292 289 286 285 285 285
272 273 274 274 275 276 277 278 277 277 277 279 279 281 283 285 286 287 287 288 287 287 288 288 288 288 289 287 283 285 284 284 283 283 283 285 286 285 285 285 285 283 281
271 272 273 273 272 273 274 275 276 277 278 277 278 280 281 282 285 288 288 287 286 287 286 286 285 286 283 283 282 281 282 282 282 282 282 283 283 283 282 283 283 281 278
270 270 270 270 270 270 271 271 276 278 279 281 282 282 284 286 288 289 288 287 287 287 284 283 283 282 280 280 279 278 280 280 281 281 281 281 280 280 280 279 280 278 277
265 267 267 268 268 268 268 269 268 272 276 279 281 283 286 286 287 287 287 286 286 284 281 280 279 277 277 277 278 276 277 279 280 280 280 279 280 278 278 277 277 277 275
260 264 264 265 265 265 266 267 267 267 268 271 277 282 284 284 283 283 285 283 276 275 275 274 273 273 274 275 275 275 276 276 277 278 277 277 277 277 276 275 275 273 273
260 262 263 264 264 264 265 265 266 267 268 272 277 279 276 279 280 280 278 271 270 269 269 269 271 271 272 273 274 275 275 275 275 275 275 275 276 276 274 274 273 272 272
264 264 265 263 264 264 264 265 266 267 269 273 273 272 270 268 267 265 265 264 265 266 268 268 269 270 270 272 273 274 274 273 273 273 273 273 273 273 272 271 270 269 268
264 264 264 264 264 264 263 264 266 267 268 269 269 268 276 265 263 263 263 264 264 265 266 267 267 267 268 268 271 272 272 272 271 271 271 271 271 270 270 270 269 269 269
262 262 262 262 262 263 264 265 266 266 266 266 264 264 271 263 262 263 264 264 265 265 266 266 266 266 266 266 267 269 269 269 269 270 270 270 270 270 269 268 268 268 267
262 262 262 262 262 263 263 261 261 261 262 263 263 262 263 263 263 264 264 265 265 265 266 265 265 265 266 266 266 266 266 266 267 269 269 268 268 267 268 267 267 265 265
259 258 258 259 257 257 259 259 259 260 261 262 262 263 263 264 264 264 264 265 265 265 265 264 265 264 264 265 265 265 266 267 267 267 268 267 266 266 266 265 264 264 264
254 255 255 254 254 255 256 257 260 261 261 261 262 263 264 264 264 264 264 264 264 264 263 264 264 265 265 266 266 267 267 265 266 267 267 266 265 265 264 264 264 263 263
253 254 253 255 256 257 258 258 257 258 260 262 263 263 264 264 264 264 264 264 264 263 263 263 263 264 265 266 268 270 270 269 266 266 266 266 265 264 264 263 263 262 262

GFSGL_sfc_thetae_186.txt.gz
Theta_e
305 305 305 305 305 306 306 305 305 305 304 305 305 305 305 305 306 306 307 307 307 308 309 308 308 308 309 310 312 313 313 313 309 311 314 316 317 317 317 319 317 318 319
304 304 304 304 304 304 303 302 303 302 302 302 302 301 302 302 303 303 303 303 303 303 303 303 303 303 304 305 305 305 306 307 306 303 306 308 309 312 314 315 315 317 318
303 303 302 302 301 301 300 300 299 299 299 299 299 299 299 300 300 300 300 300 301 301 302 301 302 302 302 303 303 302 301 302 302 299 298 302 302 305 307 309 310 314 316
302 301 301 301 300 299 298 297 297 297 297 298 298 298 298 298 298 298 298 299 300 300 301 301 301 301 300 301 300 300 300 300 300 298 298 298 299 300 300 299 300 305 307
301 300 300 299 298 297 296 296 296 295 295 296 295 296 297 297 297 297 298 298 298 298 298 298 298 295 290 293 295 296 296 295 294 294 293 294 294 295 295 298 297 299 304
300 300 299 297 296 296 295 294 293 293 293 293 294 294 294 294 293 293 294 296 295 295 294 295 296 292 294 293 294 294 295 294 292 292 292 291 292 294 295 295 295 295 294
300 299 297 296 294 294 293 292 291 291 291 291 292 293 293 294 293 293 291 293 293 293 293 293 293 294 292 295 295 294 293 293 294 293 291 292 292 294 294 292 293 294 295
298 297 295 294 293 292 291 290 289 289 289 290 290 291 291 292 292 292 291 292 292 292 293 293 293 293 294 293 293 293 292 292 292 293 293 293 294 294 294 293 292 291 293
295 295 293 291 290 290 289 289 288 288 288 289 289 289 289 290 291 291 291 291 291 291 292 293 293 292 292 292 291 290 290 291 293 293 293 293 293 293 293 291 288 287 287
293 293 293 291 291 290 289 288 287 287 286 286 286 288 287 288 290 290 290 291 289 289 290 290 288 289 290 291 290 289 287 289 290 289 289 290 291 291 291 290 289 286 286
292 290 288 288 288 288 287 286 285 285 284 285 285 287 287 288 289 290 290 290 289 287 287 288 289 290 290 291 291 289 289 291 289 287 287 287 288 289 289 290 290 289 287
289 287 286 285 285 284 284 284 283 283 283 284 284 285 287 288 287 290 290 290 291 289 287 288 288 289 290 290 289 290 290 290 287 285 285 285 286 287 288 288 288 291 293
285 284 284 283 283 283 283 282 282 283 282 283 283 284 286 288 289 289 290 290 290 289 288 288 289 288 289 288 289 289 286 286 285 284 283 284 285 286 286 287 287 287 287
282 280 280 280 280 281 281 282 282 282 282 282 282 283 284 285 287 288 288 288 287 288 288 287 287 287 288 288 287 287 286 285 284 282 282 283 284 285 284 284 283 283 282
279 278 279 280 278 279 279 279 280 281 281 280 281 282 281 282 284 286 286 287 287 287 286 285 284 285 284 284 285 284 285 283 282 283 282 282 282 283 282 283 281 281 278
278 277 278 277 277 276 276 277 278 278 279 280 281 282 283 284 285 287 287 287 287 287 285 283 282 282 281 281 280 280 282 281 281 281 282 281 280 280 279 280 279 279 278
276 275 275 273 274 274 275 274 274 277 277 277 279 280 282 284 285 283 284 284 285 285 281 280 280 279 278 278 278 279 279 280 280 281 280 280 279 279 278 277 276 276 275
269 266 271 272 272 272 272 272 272 272 272 274 277 279 281 281 281 281 281 281 280 280 278 276 275 276 276 276 277 277 278 279 279 279 278 278 278 277 276 275 274 273 273
269 270 270 270 270 269 270 270 271 271 272 273 275 278 278 278 278 277 276 273 273 273 274 274 274 274 275 275 276 277 277 277 277 277 277 276 276 276 274 274 272 271 271
268 267 267 269 269 269 270 270 270 271 271 272 273 273 274 275 274 272 271 270 270 270 271 271 272 272 272 273 275 276 276 276 275 276 275 275 275 274 273 272 271 270 270
268 268 267 267 267 268 268 269 269 270 270 271 271 272 274 270 270 269 268 268 268 269 269 270 270 270 270 271 272 274 274 274 274 274 274 274 273 272 272 271 270 270 270
267 267 267 267 267 268 268 268 269 269 269 269 269 269 270 268 268 267 268 268 268 268 268 268 269 269 268 268 269 269 270 270 271 273 273 272 272 272 271 271 270 269 269
266 266 267 267 267 266 267 267 267 267 267 267 267 267 267 267 267 267 267 267 267 267 267 268 267 267 268 269 269 268 268 268 269 270 271 271 271 271 270 269 268 268 267
266 266 266 266 266 266 266 266 266 265 266 266 266 266 267 267 267 266 266 267 267 267 267 267 267 267 268 269 270 270 269 269 269 269 270 270 269 269 268 267 267 266 266
265 265 265 265 265 265 265 265 265 266 266 266 267 266 266 267 266 266 266 266 266 266 265 266 266 267 267 268 270 270 269 267 268 269 269 268 267 267 266 266 266 266 265
264 264 264 264 264 265 265 265 265 266 266 266 266 266 266 266 266 266 266 265 265 265 265 265 266 266 267 268 269 271 271 271 268 268 269 268 267 266 266 265 265 265 265

GFSGL_sfc_thetae_189.txt.gz
Theta_e
308 307 307 307 308 308 308 308 307 307 306 306 306 306 306 306 307 307 308 309 308 308 309 309 308 308 307 307 307 307 307 306 303 305 307 309 308 308 309 310 309 310 311
306 306 306 306 306 306 305 305 305 305 305 304 303 302 303 303 304 303 303 304 303 303 304 304 303 304 304 305 305 304 304 305 302 299 302 302 302 304 304 304 305 306 307
305 305 305 304 304 304 303 303 302 302 301 301 300 300 300 301 301 301 301 300 300 301 302 302 302 303 302 303 303 302 302 301 300 298 297 300 300 302 301 302 302 302 303
304 304 304 304 303 303 302 301 300 299 299 299 299 299 299 299 299 299 298 298 299 300 302 301 301 301 300 300 298 297 297 296 295 295 294 294 296 297 297 295 295 297 298
303 303 303 303 303 301 300 299 299 298 297 298 297 297 298 297 297 298 298 298 298 298 299 299 299 295 289 293 294 295 294 294 293 292 291 291 292 292 292 294 293 294 295
302 302 302 302 300 299 299 298 297 296 296 295 295 295 295 294 294 293 294 295 295 295 295 296 296 291 293 293 293 293 294 293 292 291 290 289 290 292 293 292 291 290 288
301 301 301 300 298 298 297 295 294 294 294 293 293 293 293 294 293 293 291 292 292 293 293 293 293 293 291 294 294 294 293 293 294 293 290 290 290 292 292 290 290 289 289
300 300 299 298 297 295 294 293 293 293 291 291 292 292 292 292 292 292 291 292 292 292 293 293 292 292 293 292 293 292 292 293 294 293 293 292 292 293 292 291 290 289 289
297 297 297 296 294 293 292 291 292 291 290 290 291 291 290 291 291 291 290 290 291 291 292 293 292 292 291 292 290 289 289 290 292 293 293 294 294 294 292 290 287 286 285
295 295 296 295 294 293 292 290 289 289 288 287 287 289 288 289 290 290 290 290 289 289 290 290 288 288 290 291 289 289 287 287 289 289 290 291 291 290 290 290 288 285 285
293 292 292 292 290 292 290 288 287 287 285 286 285 286 287 288 289 290 291 289 289 288 288 288 289 290 290 291 291 289 288 289 288 288 287 287 287 287 288 289 288 287 284
291 290 288 287 287 287 286 285 285 285 284 284 285 285 286 287 287 289 290 290 291 288 287 287 288 290 290 290 289 289 290 290 287 286 285 285 285 285 286 286 286 286 286
286 284 285 284 284 285 285 284 284 284 284 284 284 284 285 286 287 289 290 290 290 288 287 288 289 289 289 287 288 289 287 286 285 283 283 283 284 285 285 285 285 285 284
284 282 282 282 283 283 283 284 284 284 284 283 283 283 284 284 285 286 286 287 286 287 287 287 287 288 288 287 286 286 285 285 284 282 282 283 284 283 283 283 281 281 280
281 281 282 282 282 282 282 282 282 283 283 282 282 282 281 281 283 285 284 285 286 286 285 285 285 284 284 283 283 284 283 283 281 282 281 280 281 281 281 281 279 278 277
280 280 280 280 280 279 279 279 280 280 280 280 281 281 281 283 284 285 285 285 285 285 283 283 282 281 281 280 279 279 280 280 280 280 279 280 279 279 279 278 277 275 275
278 277 276 276 277 277 277 277 276 279 279 279 279 280 280 282 283 282 282 282 282 283 281 279 278 278 278 277 277 277 277 278 279 279 279 278 278 278 277 276 274 274 274
271 269 275 275 275 275 275 275 275 274 274 276 278 279 280 280 280 280 279 278 277 278 277 276 275 275 275 276 276 276 277 277 277 277 277 277 276 276 275 273 271 271 271
272 273 272 273 272 271 271 272 273 273 273 274 276 278 278 277 278 277 276 272 271 272 273 273 273 273 273 273 274 276 276 277 276 275 276 276 275 274 271 271 271 270 270
270 268 268 271 271 271 272 271 272 272 272 273 274 274 273 275 273 271 271 270 270 269 270 270 271 271 271 271 272 273 274 275 274 274 274 274 274 273 271 270 269 269 269
270 270 269 269 269 270 270 270 271 271 271 272 272 272 274 270 269 269 268 268 268 268 268 269 270 269 269 269 269 269 270 271 271 272 273 272 272 271 272 271 270 270 270
269 269 269 269 269 269 270 270 270 270 270 270 270 269 271 269 268 268 268 268 268 268 268 268 268 268 268 268 268 268 268 268 268 269 270 271 271 271 271 270 269 269 269
268 268 268 268 268 268 268 269 268 269 268 268 268 268 268 268 267 267 267 267 267 267 267 267 267 267 269 270 270 269 267 267 268 269 268 270 269 269 268 267 267 267 267
268 268 268 268 268 268 268 267 266 265 267 267 267 267 267 267 267 266 266 266 266 266 266 265 266 266 267 268 270 270 269 269 268 269 268 268 267 267 266 264 266 266 266
267 267 268 268 267 267 266 267 267 266 267 267 267 266 267 266 265 266 266 264 262 263 263 262 263 265 266 267 268 270 271 269 268 269 269 267 267 266 264 264 266 265 266
266 266 266 266 266 266 266 266 266 266 266 266 266 266 265 265 265 265 264 262 262 262 261 262 263 263 264 266 267 270 272 272 269 268 269 268 267 266 266 264 264 264 265

GFSGL_sfc_thetae_195.txt.gz
Theta_e
302 302 302 302 303 304 304 303 303 303 303 303 303 302 302 302 302 301 301 302 301 301 301 301 301 301 299 299 299 299 298 298 296 299 299 299 298 297 298 299 298 299 299
301 301 301 301 301 301 301 301 301 300 301 301 301 300 300 299 299 298 298 298 297 296 297 297 297 299 297 297 297 297 297 297 295 295 297 294 295 297 297 295 296 297 296
300 300 300 299 299 299 299 300 299 299 299 298 297 297 296 296 296 296 296 296 295 295 295 295 295 296 295 295 295 294 293 294 293 292 292 295 295 296 294 294 294 295 296
299 298 298 298 298 298 299 298 298 297 296 295 295 294 295 295 295 294 293 293 293 294 294 295 295 295 294 292 291 290 291 290 291 292 292 291 292 293 292 290 289 292 292
298 297 297 298 298 298 297 297 296 295 294 294 293 294 294 294 293 293 293 293 292 292 293 292 294 291 289 291 291 290 292 291 291 290 289 289 289 289 289 291 289 290 291
296 297 297 297 297 296 295 295 293 293 292 292 292 292 291 291 293 294 293 291 290 289 289 290 291 288 290 292 292 292 293 291 290 289 289 288 289 290 290 289 288 286 285
295 296 296 296 295 294 293 292 291 291 291 291 290 290 290 290 293 293 292 289 289 288 288 288 288 289 288 290 292 292 291 291 293 291 289 289 289 290 290 288 287 287 287
293 294 294 293 293 292 291 291 290 290 289 289 288 289 288 289 293 293 291 288 287 287 287 288 288 288 289 289 289 288 289 289 290 290 290 289 290 290 290 289 289 288 288
290 291 291 290 290 289 289 289 289 288 287 287 287 287 287 287 292 292 290 287 286 286 287 288 288 287 289 291 288 286 285 287 290 291 291 292 292 292 291 289 286 284 283
288 288 288 288 288 289 288 287 286 286 287 284 285 286 285 285 290 291 289 285 284 283 285 286 286 286 289 290 287 285 285 285 286 286 287 288 289 289 290 289 286 283 283
286 286 287 287 287 287 287 286 285 285 285 284 284 283 283 284 285 290 290 285 283 282 282 283 284 289 290 290 290 288 286 287 286 285 285 285 286 286 286 286 286 285 282
284 284 284 283 284 285 282 282 282 283 282 281 281 281 282 283 284 288 289 290 288 284 283 283 283 288 289 289 288 289 288 287 285 285 284 283 283 283 284 285 285 285 285
280 279 278 279 281 281 279 280 278 279 279 280 280 279 280 281 282 288 288 289 289 283 282 284 288 288 288 287 288 288 285 285 284 282 281 281 282 283 283 282 284 283 283
274 276 276 276 277 278 279 280 277 277 277 279 279 279 279 279 280 279 280 278 281 282 283 281 285 285 285 285 284 284 283 282 281 280 280 281 281 280 280 281 279 279 276
273 273 274 274 273 274 276 276 278 278 278 274 272 275 271 271 276 282 281 280 283 284 283 281 280 281 281 281 280 280 280 279 278 279 278 278 278 278 278 278 278 275 267
274 273 272 272 271 272 271 272 281 281 281 282 282 278 275 280 282 283 283 283 283 283 278 278 279 278 277 276 276 276 276 276 276 276 274 273 274 274 275 274 269 264 266
269 273 273 273 274 274 273 272 269 274 280 280 280 280 280 281 281 281 281 280 280 279 274 274 271 273 273 272 269 269 270 272 273 270 269 271 273 272 271 269 267 263 263
269 270 269 268 270 270 269 269 268 268 267 269 276 279 280 280 280 279 278 273 269 268 264 264 266 263 263 264 265 265 267 268 268 269 270 270 269 268 267 265 264 261 261
269 267 268 266 266 266 266 268 266 265 264 265 268 273 273 278 277 276 273 267 265 264 262 264 262 263 261 261 263 265 266 268 268 267 265 266 267 265 262 261 262 262 259
264 268 267 264 265 269 269 269 269 268 266 265 264 265 267 268 267 267 265 262 260 259 260 260 261 261 262 262 265 264 263 263 263 261 263 264 266 266 262 262 260 260 259
266 269 269 266 268 269 269 268 269 268 266 264 262 265 272 264 263 262 264 261 261 259 261 263 261 262 264 262 259 259 259 259 258 260 262 264 265 263 262 262 260 259 259
261 265 265 264 267 267 267 266 264 262 261 261 259 266 270 261 262 261 261 259 259 259 259 259 261 262 262 261 261 259 258 258 259 259 259 260 260 260 259 258 259 261 261
257 257 258 259 263 264 261 260 261 263 260 259 260 261 261 261 261 258 257 257 258 257 259 260 258 257 256 258 261 260 260 262 261 256 257 257 257 258 256 256 257 259 263
257 258 259 260 261 261 263 260 260 262 261 261 261 261 261 260 260 259 255 253 253 254 253 253 253 254 256 258 259 261 262 259 258 259 258 255 256 258 255 255 257 261 261
259 260 260 260 261 263 262 259 260 259 258 259 259 259 258 258 257 256 254 252 252 253 253 253 252 254 255 258 259 261 265 262 260 260 257 255 258 259 255 254 256 259 262
259 262 261 263 262 261 259 259 258 258 258 258 258 257 257 256 255 257 256 257 256 254 255 254 256 257 257 256 257 265 269 270 261 260 255 255 256 255 254 254 256 260 262

GFSGL_sfc_thetae_198.txt.gz
Theta_e
301 302 303 303 303 304 305 305 305 306 306 306 304 304 303 302 301 301 301 301 301 300 300 300 300 300 299 298 297 298 298 297 295 298 297 297 295 294 295 295 295 294 295
300 300 300 301 301 301 301 301 301 301 301 301 301 301 300 300 299 298 298 298 297 296 296 296 295 298 295 296 295 295 295 295 293 292 293 292 292 293 293 293 294 295 294
299 299 299 299 299 299 299 299 299 299 299 299 298 298 298 297 296 296 296 295 295 295 294 294 294 294 293 293 293 293 292 293 291 289 289 291 291 292 291 291 291 292 293
297 298 297 298 298 298 298 298 298 297 297 296 296 295 294 294 294 294 293 293 292 292 293 293 293 293 293 292 291 290 290 288 288 288 288 289 290 289 291 288 288 288 290
295 296 297 297 297 297 296 297 296 295 295 294 293 292 293 293 293 292 292 291 291 291 291 291 292 290 290 291 291 289 289 288 287 288 288 287 287 286 288 290 288 289 290
294 295 296 296 296 295 295 295 294 293 292 292 291 291 291 291 293 294 292 291 290 289 288 289 289 287 288 291 292 292 292 291 289 288 287 287 288 289 289 288 287 285 284
293 293 294 294 294 294 293 292 292 292 291 290 290 290 290 290 293 293 292 289 288 288 287 286 287 288 287 288 291 292 291 291 292 290 287 287 287 289 289 287 286 286 285
292 292 291 291 291 291 290 290 291 290 289 289 289 289 288 289 292 293 291 288 287 286 286 286 286 287 288 287 287 287 286 287 287 289 289 289 289 290 289 288 287 287 287
289 289 289 289 289 289 289 289 289 289 288 288 287 288 287 287 291 292 291 286 285 285 285 286 286 286 288 291 286 285 284 285 290 290 291 291 291 291 291 288 285 284 282
286 286 286 286 286 287 287 287 287 287 288 285 286 286 285 286 290 292 290 285 284 283 284 285 285 285 289 290 285 284 283 284 285 285 286 287 288 288 289 288 286 283 282
284 284 284 285 285 285 285 285 285 285 285 285 285 284 284 284 285 291 291 285 284 282 282 283 284 289 290 290 290 285 285 287 286 285 285 285 285 285 285 285 285 284 282
281 282 281 281 282 283 281 281 281 282 281 280 281 281 282 283 284 288 290 290 288 283 283 283 283 288 289 289 287 288 289 287 284 284 283 283 283 283 283 284 284 284 284
277 276 277 279 280 280 279 280 278 279 278 279 279 278 280 281 281 288 289 289 290 285 282 284 286 288 288 287 287 287 284 283 282 281 280 280 282 282 282 282 282 283 282
273 274 275 275 276 278 279 279 276 276 276 278 277 276 278 279 280 280 280 279 281 282 283 280 283 285 285 284 282 282 282 281 280 279 279 279 280 279 278 279 278 278 273
273 273 273 273 272 273 276 277 277 278 278 272 271 273 272 271 276 281 281 278 281 284 282 281 280 280 279 277 276 278 278 277 276 276 274 270 271 271 272 273 273 268 263
271 272 271 272 271 273 273 273 282 282 282 283 282 278 277 281 282 283 283 283 283 283 278 278 277 276 274 274 272 270 271 268 268 271 268 269 270 271 271 268 264 261 260
267 269 269 271 273 272 273 272 272 275 281 281 281 281 281 281 281 281 281 279 279 276 270 269 269 269 267 267 265 265 266 268 270 268 268 268 269 264 264 264 263 259 258
266 268 266 267 267 271 271 271 270 269 267 269 276 279 281 280 280 279 277 274 268 269 267 264 262 262 262 263 263 263 265 265 265 266 264 264 264 263 262 262 261 258 257
264 263 263 264 264 265 266 266 270 269 266 269 271 274 275 279 277 275 273 266 264 261 259 261 259 259 260 260 262 262 260 260 260 259 258 259 262 261 260 259 261 261 259
261 265 264 261 263 265 268 269 271 271 271 271 269 268 270 269 265 262 262 259 260 258 257 258 257 257 258 258 258 257 257 259 258 257 257 257 260 260 260 260 259 258 258
269 270 271 270 269 270 270 269 270 268 268 266 266 267 270 265 260 257 256 256 256 256 257 255 256 257 255 256 256 256 254 254 254 254 255 257 257 255 256 256 254 256 256
256 257 261 263 267 266 267 265 266 266 263 263 263 269 270 262 259 256 256 257 256 255 253 253 254 255 256 256 256 255 255 255 256 256 256 255 253 253 254 255 255 255 256
255 255 256 257 258 260 259 259 259 259 260 259 261 262 260 258 255 255 256 256 255 254 253 252 253 254 254 255 256 256 257 259 260 256 254 252 253 254 252 253 254 255 256
255 256 259 259 260 260 262 260 260 261 261 261 260 259 256 253 253 254 253 253 253 251 249 250 250 251 252 254 255 260 259 255 252 253 252 252 252 254 253 252 253 254 256
257 258 260 260 260 262 261 261 262 261 260 259 257 254 253 253 253 252 251 251 251 251 252 252 252 253 254 255 256 258 264 259 256 256 251 252 252 252 252 251 252 253 257
258 260 259 260 261 261 262 261 259 258 258 256 255 254 254 254 252 252 252 252 252 252 252 252 252 252 252 252 254 263 268 266 259 256 251 253 255 255 252 252 254 252 253